User: anonymous   Login
Location: Newark
(39.0622°N, 106.5590°E)
Time: 11:27:07
(UTC+00:00)
Language:

Explorer 7 - Orbit

View from above orbital plane
View from above orbital plane
View from above satellite
View from above satellite

Ground track
Ground track

The orbit data is extracted from the following two-line orbital elements,

1    22U 59009A   20028.13881391 -.00000093  00000-0  16656-4 0  9994
2    22  50.2844  45.0661 0139642  78.8495 282.8116 14.95027207204187
Epoch (UTC): 28 January 2020 03:19:53
Eccentricity: 0.0139642
inclination: 50.2844°
perigee height: 485 km
apogee height: 679 km
right ascension of ascending node: 45.0661°
argument of perigee: 78.8495°
revolutions per day: 14.95027207
mean anomaly at epoch: 282.8116°
orbit number at epoch: 20418

The dashed part of the orbit path shows where the satellite is in the earth's shadow,  

DLR